Temp
-10 -11 -11 -12 -12 -13 -13 -14 -15 -16 -16 -16 -18 -20 -21 -21 -21 -22 -22 -21 -19 -19 -19 -19 -19 -19 -18 -18 -17 -17 -16 -15 -15 -16 -15 -14 -14 -13 -12 -12 -12 -11 -11 -11 -11 -11 -11
-10 -11 -11 -12 -12 -13 -13 -13 -15 -16 -16 -16 -17 -19 -20 -21 -20 -20 -20 -20 -20 -19 -19 -19 -19 -18 -18 -17 -17 -17 -17 -16 -15 -16 -16 -15 -14 -14 -12 -12 -11 -11 -12 -12 -11 -11 -11
-11 -11 -12 -12 -13 -13 -13 -13 -14 -16 -16 -16 -16 -17 -19 -19 -18 -18 -19 -19 -19 -19 -18 -18 -18 -18 -17 -17 -16 -17 -18 -17 -15 -16 -16 -15 -14 -13 -12 -12 -12 -12 -12 -12 -12 -11 -11
-12 -12 -12 -12 -12 -13 -13 -13 -14 -15 -16 -16 -16 -16 -17 -18 -17 -17 -18 -19 -18 -17 -17 -17 -17 -16 -17 -17 -18 -19 -18 -17 -15 -15 -15 -15 -14 -13 -13 -13 -13 -12 -12 -12 -12 -11 -11
-12 -12 -12 -12 -12 -13 -13 -13 -14 -14 -16 -16 -16 -16 -16 -17 -16 -16 -18 -18 -17 -17 -16 -16 -17 -17 -18 -18 -19 -19 -17 -17 -16 -15 -15 -15 -15 -14 -14 -13 -13 -13 -12 -12 -12 -12 -11
-12 -12 -12 -12 -12 -13 -13 -13 -14 -14 -15 -16 -16 -16 -16 -16 -16 -15 -16 -17 -17 -17 -17 -16 -17 -18 -19 -19 -19 -18 -17 -17 -15 -15 -15 -15 -15 -14 -14 -14 -13 -13 -12 -12 -12 -11 -11
-12 -12 -12 -12 -13 -13 -13 -14 -14 -14 -14 -15 -16 -15 -16 -16 -16 -16 -16 -16 -17 -16 -17 -17 -16 -18 -19 -18 -18 -18 -17 -16 -15 -15 -15 -15 -14 -14 -13 -13 -13 -12 -12 -12 -12 -12 -11
-12 -12 -12 -13 -13 -13 -13 -13 -14 -14 -14 -14 -15 -16 -16 -16 -16 -16 -16 -17 -17 -17 -17 -17 -17 -18 -18 -18 -18 -17 -17 -16 -15 -14 -14 -14 -14 -14 -14 -13 -13 -13 -12 -12 -12 -12 -11
-12 -12 -12 -12 -13 -13 -13 -13 -14 -14 -14 -14 -15 -15 -16 -16 -16 -16 -16 -16 -16 -17 -17 -17 -17 -18 -17 -17 -17 -17 -17 -16 -14 -14 -14 -14 -13 -13 -13 -13 -12 -12 -12 -12 -12 -12 -11
-12 -12 -12 -12 -13 -13 -13 -13 -13 -14 -14 -14 -14 -15 -15 -16 -16 -16 -16 -16 -16 -17 -17 -17 -18 -18 -18 -17 -17 -16 -16 -16 -15 -14 -14 -13 -13 -13 -13 -13 -13 -13 -12 -12 -12 -12 -11
-12 -12 -12 -12 -12 -13 -13 -13 -13 -13 -13 -14 -14 -15 -15 -15 -16 -16 -16 -16 -16 -16 -16 -17 -17 -18 -17 -17 -17 -16 -16 -15 -15 -15 -14 -14 -13 -13 -13 -13 -13 -13 -12 -12 -12 -12 -12
-12 -12 -13 -13 -13 -13 -13 -13 -13 -13 -14 -13 -14 -14 -15 -15 -15 -16 -16 -16 -16 -16 -16 -17 -17 -17 -17 -16 -16 -16 -16 -15 -15 -14 -14 -13 -13 -13 -13 -13 -13 -13 -13 -13 -12 -12 -12
-12 -13 -13 -13 -13 -13 -13 -13 -13 -13 -13 -14 -13 -14 -14 -15 -15 -15 -16 -16 -16 -16 -16 -16 -16 -16 -16 -16 -16 -16 -16 -15 -15 -14 -14 -14 -14 -13 -13 -13 -13 -13 -13 -13 -13 -13 -12
-12 -13 -13 -13 -13 -13 -13 -13 -13 -13 -13 -13 -13 -13 -14 -14 -14 -15 -15 -15 -16 -16 -16 -15 -15 -16 -15 -16 -15 -15 -16 -15 -15 -15 -15 -14 -14 -14 -14 -14 -14 -14 -14 -14 -13 -13 -13
-12 -12 -13 -13 -13 -13 -13 -13 -13 -13 -13 -13 -13 -13 -13 -13 -14 -14 -14 -15 -15 -15 -15 -16 -15 -15 -15 -15 -15 -15 -15 -15 -15 -14 -14 -14 -14 -14 -14 -14 -14 -14 -14 -14 -14 -14 -13
-13 -13 -13 -13 -13 -13 -13 -13 -13 -13 -13 -14 -14 -14 -13 -13 -13 -14 -14 -14 -15 -15 -15 -15 -15 -15 -15 -15 -15 -15 -15 -15 -14 -14 -14 -14 -14 -14 -14 -14 -14 -14 -14 -14 -14 -14 -13
-13 -13 -13 -13 -13 -13 -13 -13 -13 -14 -14 -14 -14 -13 -13 -13 -13 -13 -13 -14 -14 -14 -15 -15 -15 -15 -15 -15 -15 -15 -15 -15 -15 -15 -15 -15 -14 -14 -14 -14 -14 -14 -14 -14 -14 -14 -14
-13 -13 -13 -13 -13 -13 -14 -14 -14 -13 -14 -14 -14 -14 -13 -13 -13 -13 -13 -13 -14 -14 -14 -14 -14 -15 -15 -14 -15 -15 -15 -15 -15 -15 -15 -15 -15 -15 -15 -15 -15 -15 -15 -15 -15 -14 -14
-13 -13 -13 -14 -14 -14 -14 -14 -14 -14 -14 -14 -14 -14 -14 -13 -13 -13 -13 -13 -13 -13 -13 -14 -14 -14 -14 -14 -15 -14 -14 -15 -15 -15 -15 -15 -15 -15 -15 -15 -15 -15 -15 -15 -15 -15 -15
-13 -13 -14 -14 -14 -14 -14 -14 -15 -14 -14 -14 -14 -15 -14 -14 -13 -13 -13 -13 -13 -13 -14 -14 -13 -14 -14 -14 -14 -14 -14 -14 -14 -14 -14 -14 -14 -14 -14 -14 -14 -15 -15 -15 -14 -14 -15
-14 -13 -14 -14 -14 -14 -14 -14 -14 -15 -14 -14 -14 -14 -15 -15 -14 -13 -13 -14 -13 -13 -13 -13 -14 -14 -14 -14 -13 -13 -13 -14 -14 -14 -14 -14 -14 -14 -14 -14 -14 -14 -14 -14 -14 -14 -13
-14 -13 -13 -14 -14 -14 -14 -14 -14 -15 -15 -14 -15 -14 -14 -15 -15 -15 -14 -14 -14 -14 -13 -13 -14 -14 -14 -14 -14 -14 -13 -13 -14 -14 -13 -14 -14 -14 -14 -13 -13 -13 -14 -14 -14 -13 -13
-13 -13 -13 -12 -13 -13 -13 -14 -14 -14 -15 -14 -15 -14 -14 -14 -14 -15 -15 -15 -14 -13 -14 -14 -14 -14 -14 -14 -14 -14 -14 -13 -13 -13 -13 -13 -13 -13 -13 -14 -14 -13 -14 -14 -14 -14 -13
-13 -13 -13 -13 -13 -12 -12 -12 -12 -13 -14 -13 -14 -14 -14 -14 -14 -14 -14 -15 -15 -15 -14 -13 -15 -15 -15 -15 -14 -14 -14 -14 -14 -14 -14 -13 -13 -13 -13 -13 -13 -13 -13 -13 -13 -13 -14
-15 -14 -14 -14 -13 -13 -13 -12 -12 -13 -13 -13 -12 -13 -13 -13 -14 -14 -14 -14 -15 -15 -15 -15 -15 -14 -14 -14 -14 -14 -14 -14 -14 -14 -14 -14 -14 -13 -13 -13 -13 -14 -13 -14 -14 -14 -13
-15 -15 -15 -15 -14 -14 -14 -13 -13 -12 -12 -13 -13 -13 -12 -13 -14 -14 -14 -14 -15 -15 -15 -15 -15 -15 -15 -14 -14 -14 -14 -14 -14 -14 -14 -14 -14 -14 -13 -13 -13 -13 -14 -14 -14 -14 -14
-15 -15 -15 -15 -15 -15 -14 -14 -14 -13 -13 -13 -13 -13 -12 -12 -14 -13 -14 -14 -15 -15 -15 -15 -15 -15 -16 -15 -15 -15 -15 -14 -14 -14 -14 -14 -14 -14 -14 -14 -14 -14 -14 -13 -13 -13 -13
-15 -15 -15 -15 -16 -15 -15 -15 -15 -14 -15 -14 -14 -13 -13 -13 -13 -13 -14 -14 -15 -15 -15 -15 -15 -16 -16 -15 -16 -16 -15 -15 -15 -15 -15 -15 -15 -15 -15 -15 -14 -15 -14 -14 -14 -14 -13
-16 -16 -16 -15 -16 -16 -16 -16 -16 -15 -15 -15 -15 -15 -14 -14 -14 -14 -14 -13 -14 -16 -16 -16 -16 -16 -16 -16 -16 -15 -15 -15 -15 -16 -16 -16 -16 -16 -16 -15 -15 -15 -15 -15 -15 -14 -14
Height
5781 5772 5762 5753 5743 5734 5720 5708 5696 5683 5670 5658 5644 5632 5625 5617 5610 5606 5605 5604 5606 5609 5610 5612 5614 5615 5617 5622 5634 5642 5650 5664 5684 5699 5713 5725 5732 5743 5755 5766 5776 5786 5795 5802 5807 5813 5819
5783 5774 5765 5755 5746 5737 5726 5714 5702 5689 5677 5666 5655 5642 5635 5629 5622 5619 5618 5617 5617 5618 5620 5620 5617 5617 5624 5630 5640 5648 5659 5668 5684 5702 5713 5722 5733 5743 5753 5764 5775 5785 5792 5799 5805 5810 5816
5785 5776 5768 5758 5749 5740 5731 5720 5709 5696 5685 5674 5665 5656 5648 5638 5635 5633 5630 5628 5629 5629 5627 5624 5626 5630 5632 5640 5645 5653 5663 5673 5686 5700 5712 5725 5737 5749 5760 5767 5776 5784 5790 5797 5802 5807 5813
5788 5779 5771 5762 5753 5744 5736 5727 5716 5705 5694 5684 5676 5667 5660 5652 5648 5647 5648 5644 5645 5641 5639 5638 5638 5640 5644 5648 5654 5659 5670 5682 5696 5709 5722 5735 5743 5752 5759 5767 5774 5781 5788 5794 5800 5805 5810
5791 5783 5774 5766 5757 5749 5741 5733 5723 5714 5703 5693 5686 5678 5668 5664 5660 5661 5659 5658 5656 5654 5653 5652 5650 5647 5652 5656 5665 5674 5680 5689 5699 5712 5724 5735 5745 5751 5759 5765 5773 5779 5786 5792 5798 5802 5806
5793 5786 5778 5770 5762 5754 5745 5738 5730 5721 5712 5702 5694 5687 5679 5675 5670 5668 5668 5665 5664 5665 5665 5663 5664 5663 5663 5667 5674 5682 5690 5698 5704 5716 5728 5738 5745 5752 5758 5764 5771 5777 5784 5789 5793 5800 5803
5796 5788 5782 5773 5766 5759 5751 5743 5736 5729 5720 5711 5704 5696 5689 5684 5679 5671 5671 5672 5673 5672 5671 5672 5670 5674 5674 5679 5684 5690 5696 5703 5710 5721 5731 5739 5747 5753 5761 5767 5771 5776 5780 5785 5792 5794 5799
5798 5791 5785 5778 5770 5762 5755 5748 5741 5734 5728 5720 5712 5706 5699 5692 5689 5684 5680 5678 5675 5676 5675 5676 5677 5681 5685 5689 5691 5696 5704 5708 5716 5725 5733 5742 5749 5755 5760 5765 5770 5774 5779 5785 5788 5791 5795
5799 5793 5787 5781 5774 5767 5758 5752 5746 5739 5733 5726 5720 5713 5706 5701 5694 5691 5688 5686 5683 5682 5684 5684 5686 5686 5690 5696 5699 5703 5709 5715 5720 5728 5735 5743 5750 5755 5760 5765 5770 5773 5778 5782 5785 5787 5790
5800 5795 5789 5783 5777 5771 5763 5755 5751 5743 5738 5732 5726 5720 5713 5708 5703 5698 5694 5692 5689 5687 5688 5691 5692 5694 5697 5700 5706 5710 5715 5720 5726 5731 5737 5743 5749 5754 5759 5763 5768 5772 5775 5778 5781 5784 5787
5800 5796 5791 5785 5779 5773 5767 5759 5752 5748 5742 5737 5732 5727 5721 5714 5710 5707 5704 5698 5694 5695 5695 5697 5696 5697 5701 5706 5711 5714 5719 5725 5730 5735 5740 5745 5750 5755 5759 5763 5767 5770 5773 5775 5777 5780 5783
5800 5796 5792 5787 5781 5776 5769 5763 5755 5750 5746 5742 5738 5732 5726 5722 5717 5712 5708 5705 5703 5703 5700 5701 5701 5702 5704 5709 5714 5718 5723 5727 5732 5737 5741 5746 5750 5755 5758 5762 5764 5767 5769 5771 5772 5775 5778
5801 5796 5792 5787 5782 5777 5772 5766 5759 5752 5748 5744 5741 5738 5732 5728 5723 5718 5714 5712 5711 5706 5708 5708 5707 5708 5711 5713 5717 5721 5724 5729 5733 5739 5742 5745 5749 5752 5755 5758 5761 5763 5765 5766 5769 5770 5772
5801 5796 5792 5787 5783 5778 5774 5769 5762 5755 5751 5747 5744 5741 5738 5733 5730 5725 5721 5719 5716 5713 5711 5712 5713 5714 5716 5718 5721 5724 5728 5731 5734 5737 5740 5744 5748 5749 5752 5755 5757 5759 5761 5763 5762 5764 5767
5799 5796 5792 5787 5783 5778 5774 5770 5765 5759 5753 5750 5746 5745 5741 5738 5734 5731 5728 5725 5721 5719 5718 5718 5718 5719 5720 5721 5724 5727 5730 5733 5735 5737 5741 5743 5746 5748 5751 5753 5755 5756 5757 5759 5758 5758 5759
5798 5795 5791 5787 5783 5778 5774 5771 5767 5762 5756 5752 5750 5747 5745 5742 5739 5736 5733 5730 5728 5726 5724 5723 5723 5724 5725 5726 5727 5728 5730 5732 5735 5737 5739 5742 5744 5746 5748 5749 5751 5751 5753 5753 5753 5752 5753
5795 5792 5789 5786 5782 5778 5774 5769 5766 5763 5760 5754 5752 5750 5746 5744 5742 5740 5737 5734 5732 5731 5730 5729 5727 5727 5728 5729 5730 5731 5732 5733 5734 5736 5737 5739 5741 5743 5744 5744 5746 5747 5747 5747 5747 5747 5746
5791 5789 5786 5783 5780 5777 5773 5769 5765 5761 5759 5756 5751 5750 5748 5744 5744 5742 5740 5738 5737 5734 5733 5732 5732 5731 5730 5730 5731 5732 5733 5734 5734 5735 5736 5737 5738 5739 5741 5740 5741 5742 5742 5741 5741 5742 5742
5785 5784 5782 5780 5778 5775 5772 5769 5765 5761 5758 5757 5753 5750 5748 5746 5744 5743 5742 5741 5739 5739 5737 5734 5733 5733 5733 5732 5733 5732 5733 5734 5734 5735 5735 5736 5736 5736 5737 5739 5738 5738 5738 5738 5737 5737 5737
5778 5777 5777 5775 5774 5772 5770 5767 5763 5761 5759 5756 5754 5751 5749 5746 5744 5742 5742 5742 5741 5739 5738 5737 5736 5734 5733 5733 5732 5732 5732 5732 5733 5733 5734 5735 5735 5735 5735 5735 5736 5735 5734 5734 5733 5734 5732
5773 5772 5770 5769 5768 5767 5765 5764 5761 5758 5756 5756 5753 5751 5748 5746 5745 5742 5740 5740 5740 5740 5738 5737 5735 5734 5734 5734 5733 5733 5732 5731 5731 5730 5730 5731 5731 5731 5731 5731 5731 5732 5731 5729 5729 5730 5728
5765 5765 5763 5763 5763 5762 5761 5759 5757 5755 5752 5751 5751 5749 5748 5745 5743 5742 5740 5735 5738 5738 5738 5736 5735 5733 5732 5732 5732 5730 5730 5730 5730 5729 5729 5728 5729 5728 5728 5727 5726 5727 5726 5725 5724 5723 5723
5758 5759 5757 5756 5755 5756 5755 5753 5753 5753 5750 5747 5746 5745 5744 5744 5742 5741 5739 5738 5735 5731 5733 5734 5734 5733 5731 5730 5728 5726 5726 5726 5726 5725 5725 5725 5723 5724 5726 5722 5722 5724 5722 5721 5720 5718 5717
5748 5749 5750 5750 5749 5749 5748 5748 5747 5746 5746 5744 5741 5740 5738 5738 5736 5737 5736 5735 5733 5733 5730 5726 5728 5729 5729 5728 5726 5725 5723 5721 5720 5719 5718 5718 5718 5717 5718 5717 5718 5717 5715 5713 5712 5711 5709
5737 5739 5740 5741 5741 5741 5741 5740 5740 5739 5739 5738 5736 5734 5733 5733 5731 5731 5730 5730 5729 5729 5727 5726 5724 5721 5720 5722 5721 5721 5719 5718 5716 5715 5713 5712 5710 5709 5709 5709 5711 5710 5707 5705 5703 5701 5701
5727 5729 5729 5729 5730 5731 5732 5732 5729 5730 5731 5729 5728 5728 5727 5725 5726 5724 5724 5724 5723 5722 5723 5722 5719 5716 5716 5713 5713 5714 5713 5713 5712 5711 5708 5706 5705 5704 5701 5701 5702 5702 5696 5696 5695 5693 5692
5715 5716 5717 5718 5720 5718 5719 5720 5721 5718 5718 5719 5718 5718 5719 5717 5716 5713 5713 5715 5714 5714 5714 5714 5712 5711 5709 5707 5706 5705 5704 5704 5704 5703 5702 5699 5697 5697 5694 5692 5697 5691 5690 5686 5686 5686 5684
5700 5702 5703 5704 5705 5705 5707 5707 5706 5708 5706 5707 5707 5706 5707 5707 5706 5705 5703 5701 5700 5702 5703 5705 5703 5702 5699 5698 5696 5696 5695 5696 5694 5694 5693 5692 5689 5689 5686 5683 5684 5684 5681 5680 5678 5675 5673
5686 5686 5688 5688 5688 5689 5691 5692 5693 5693 5693 5692 5693 5694 5696 5695 5695 5692 5691 5690 5689 5690 5689 5689 5691 5690 5689 5687 5684 5681 5682 5682 5684 5684 5681 5679 5679 5677 5677 5674 5672 5666 5666 5668 5666 5664 5664
Wind_Speed
49 53 53 54 51 52 57 62 56 51 51 56 53 41 37 39 39 39 36 20 29 31 22 21 17 4 25 37 45 41 51 57 65 61 60 61 61 61 57 54 51 48 44 40 40 38 36
49 52 54 54 52 50 53 59 57 51 53 52 56 44 38 38 40 39 27 17 22 21 17 10 12 20 24 31 46 44 44 53 57 57 56 56 57 55 56 53 51 47 43 40 39 38 37
48 51 54 54 54 49 50 54 57 48 51 52 52 55 44 42 36 32 20 19 18 17 16 20 21 19 22 27 36 48 51 54 56 54 52 53 54 52 51 47 44 42 40 39 38 37 36
48 51 54 54 54 50 47 50 54 52 48 49 47 52 51 42 34 29 23 17 31 39 19 21 21 23 22 29 34 45 46 50 51 48 44 44 47 47 45 43 42 40 39 38 36 35 34
47 50 53 54 54 53 46 46 50 52 45 47 46 47 46 45 31 21 21 24 39 43 35 20 19 26 22 36 39 37 44 45 46 44 43 40 41 40 39 39 38 38 38 37 35 34 34
45 48 50 53 53 52 49 43 45 48 48 42 43 42 42 39 34 22 13 15 12 22 27 34 20 28 34 35 37 38 38 39 42 39 37 38 37 38 38 36 36 35 36 35 35 33 35
43 46 48 51 53 51 49 43 41 44 46 43 38 39 37 35 31 30 23 14 12 11 14 20 26 23 33 35 35 37 39 38 38 35 32 33 34 35 35 34 36 35 36 34 32 32 33
41 44 46 49 52 52 48 46 37 39 41 42 40 32 32 32 32 26 27 20 18 16 15 17 25 23 23 28 35 34 34 36 35 32 29 27 28 28 29 30 30 31 32 31 31 31 33
38 42 44 47 49 50 49 44 40 34 36 38 39 38 29 28 28 30 28 21 20 16 14 15 19 25 22 20 23 29 32 31 33 31 28 26 25 25 24 24 25 27 27 28 30 31 32
35 39 42 45 47 49 47 46 41 31 32 34 36 36 35 28 27 25 27 26 18 22 18 15 15 16 23 24 21 24 25 28 29 31 29 28 26 24 24 24 24 25 26 29 32 32 30
33 36 38 42 45 47 46 44 40 35 27 29 32 33 32 32 25 24 25 25 19 15 17 12 10 11 18 19 21 21 22 23 24 25 27 25 24 25 23 22 21 23 25 26 29 30 30
33 35 37 40 42 45 45 42 41 36 28 24 27 29 31 30 29 22 21 24 21 15 14 14 13 12 17 18 21 23 21 22 22 23 24 24 24 23 23 23 24 24 26 28 29 31 33
33 35 36 38 41 42 43 41 41 34 31 22 23 25 27 28 29 27 25 21 24 23 13 13 13 13 14 15 17 21 23 23 23 25 24 24 24 24 24 24 26 27 28 29 32 33 35
32 34 36 38 39 40 41 41 38 36 30 25 19 21 23 25 26 28 28 26 21 24 23 12 12 12 12 12 14 14 17 19 21 21 22 24 22 24 25 25 26 26 27 28 31 33 34
31 33 35 36 37 38 39 39 36 36 29 27 22 18 18 20 23 24 26 26 27 23 21 20 13 11 11 12 12 12 13 15 18 20 20 21 23 22 23 25 27 26 27 29 31 33 33
31 33 34 36 36 36 38 38 36 33 31 26 24 20 16 15 17 19 22 22 24 24 23 19 16 14 10 9 9 10 11 13 16 17 19 21 22 24 26 27 27 27 27 29 30 33 33
32 32 33 34 35 35 36 37 36 33 29 27 22 23 20 14 14 14 15 18 18 18 20 19 18 18 13 10 7 5 5 5 7 10 14 18 21 22 23 24 25 27 28 30 31 31 32
31 31 32 32 34 33 33 34 33 35 32 27 27 22 22 19 14 12 11 12 13 14 14 14 14 14 14 15 12 8 4 3 3 4 5 7 9 11 13 18 18 19 20 23 25 26 26
31 32 32 33 32 33 33 33 32 32 31 30 25 24 23 20 18 14 13 11 8 9 9 10 9 9 8 9 9 9 8 6 3 2 2 4 4 7 11 12 15 16 18 19 20 17 13
33 34 34 32 33 32 32 34 32 30 30 30 28 20 22 22 18 16 15 13 11 8 7 6 5 5 4 4 3 2 0 1 1 1 2 3 5 5 6 6 9 11 13 14 15 12 16
36 34 34 33 34 33 31 31 33 32 30 28 30 27 23 21 21 17 14 16 14 13 11 10 8 7 6 6 4 5 5 5 5 7 8 10 11 12 14 15 13 14 15 19 19 18 17
40 33 31 29 29 30 30 30 32 30 30 30 30 28 25 22 19 20 19 11 13 16 15 14 13 13 12 12 12 11 11 12 11 12 12 13 13 15 14 16 16 13 16 19 22 23 21
36 33 29 27 25 25 27 28 30 30 30 30 29 30 29 26 23 20 20 22 19 12 14 13 13 15 16 15 16 17 19 18 17 19 20 19 21 20 17 22 22 19 21 21 23 25 24
36 34 33 30 28 27 26 27 28 29 30 32 32 30 31 30 29 27 23 20 22 24 18 16 14 12 14 15 15 16 18 20 22 23 23 23 25 27 26 27 26 26 28 30 30 31 32
38 38 36 35 32 32 31 29 29 30 30 33 33 29 33 34 34 33 33 28 22 21 25 22 20 21 19 17 19 20 18 18 21 21 22 22 24 24 25 27 26 26 30 30 32 36 36
43 42 42 41 39 39 37 39 33 31 34 35 37 34 33 36 33 36 38 39 35 30 30 28 25 26 27 25 24 22 25 24 22 19 21 24 26 25 26 27 25 25 34 34 33 38 37
48 49 49 50 48 45 43 42 44 39 38 38 39 40 39 40 37 37 38 41 43 43 40 32 33 29 28 28 28 27 27 25 24 22 21 22 24 25 27 29 21 25 28 34 35 39 37
59 59 57 56 55 54 52 49 47 48 43 41 43 45 45 42 42 43 43 42 44 47 47 43 41 37 37 36 35 32 34 30 30 29 28 31 34 32 34 36 35 32 33 34 35 35 35
66 61 61 62 63 62 59 58 57 53 52 50 47 48 50 51 49 49 49 47 49 49 51 50 48 47 47 46 46 46 42 39 37 38 39 40 38 39 39 40 42 48 45 41 42 41 41
Wind_Direction
10 10 13 15 14 16 17 17 19 20 15 18 19 29 40 49 51 55 52 59 95 120 110 105 67 104 168 171 168 156 177 176 191 190 188 188 187 189 192 193 198 202 205 204 208 213 217
9 12 14 16 16 16 19 19 20 20 18 21 19 21 35 48 46 43 47 80 109 126 140 53 28 99 147 160 166 170 171 168 185 188 185 188 189 190 192 193 197 202 207 210 213 217 222
11 13 15 15 18 16 20 20 21 22 23 23 26 28 31 50 50 48 58 57 60 87 59 39 84 91 121 141 159 167 166 169 183 186 185 187 189 192 192 195 199 204 209 213 218 222 226
11 13 15 17 16 18 18 22 22 26 27 28 30 28 36 50 52 55 53 53 63 53 67 98 87 115 127 150 158 157 161 166 179 184 185 189 189 194 195 197 201 205 212 217 221 227 233
12 13 12 15 15 19 16 21 23 25 31 35 34 35 29 44 52 61 73 95 70 60 56 83 104 108 134 145 145 148 158 160 166 178 183 185 191 191 193 198 202 208 215 220 226 233 239
11 11 11 12 16 16 18 17 24 25 29 36 37 36 37 34 48 68 55 65 67 57 57 56 93 113 124 132 141 145 148 154 159 169 180 187 189 193 197 200 205 212 219 225 231 237 245
9 9 9 10 12 14 17 16 19 24 29 33 41 42 37 37 36 42 57 71 69 30 35 51 79 115 125 131 136 146 146 149 152 163 174 186 194 198 202 209 215 220 224 230 237 246 251
7 8 7 9 10 10 12 17 16 21 26 32 35 43 45 35 38 44 44 47 55 44 51 86 106 114 128 135 140 143 148 149 150 156 162 174 183 191 200 208 216 222 230 237 242 248 252
3 5 5 5 7 10 8 15 16 17 23 29 34 38 45 44 36 44 44 47 53 65 70 80 115 133 127 138 140 146 151 155 155 157 161 168 179 186 193 202 210 217 225 230 234 242 247
358 2 1 2 3 8 9 8 15 19 17 25 33 35 41 47 49 43 39 41 47 56 63 71 97 128 142 142 150 153 159 160 163 164 168 175 181 188 195 203 210 218 225 231 235 241 247
352 357 358 359 1 4 8 7 7 16 19 21 27 36 39 44 48 54 52 44 44 54 62 62 84 112 143 148 157 159 165 168 169 174 175 180 186 192 197 204 212 222 228 236 242 248 252
345 349 354 355 357 360 5 6 8 11 17 18 27 30 39 42 47 48 48 51 55 69 75 68 94 116 145 148 166 170 172 174 177 182 186 192 198 203 209 216 223 231 238 243 248 253 256
340 343 348 351 353 356 1 4 7 9 11 19 20 30 34 39 45 49 54 57 58 66 82 82 88 114 138 155 169 179 180 184 187 192 196 199 205 211 217 224 229 234 241 247 251 253 257
335 337 341 344 348 351 356 1 4 9 11 13 18 20 30 33 40 48 53 55 69 69 71 84 90 109 139 152 173 186 192 188 190 197 202 207 216 219 224 232 238 243 248 254 260 260 259
329 332 333 337 342 348 350 354 1 8 9 9 12 10 20 28 33 38 49 54 60 72 75 79 90 103 116 148 168 184 198 208 210 212 213 218 222 226 234 238 243 248 256 259 264 266 266
323 325 328 331 337 342 348 350 354 2 11 8 7 5 8 15 27 31 36 47 56 62 72 80 84 91 103 131 147 166 188 210 221 225 230 232 236 239 245 249 254 258 262 265 268 272 274
318 320 322 326 331 337 342 347 347 353 1 9 3 1 2 3 12 22 29 34 44 55 64 70 79 82 89 94 103 126 168 192 210 226 236 240 243 247 251 255 259 262 266 268 270 272 275
311 317 317 322 325 330 334 339 344 345 348 0 6 358 2 1 358 2 7 24 27 34 48 63 67 81 89 87 85 90 106 165 191 212 230 242 248 252 253 254 257 261 264 267 271 273 277
301 306 310 313 318 321 325 330 336 339 340 344 354 2 357 358 355 344 347 346 3 9 21 32 47 59 62 76 87 94 90 88 102 137 207 229 251 258 254 262 265 269 274 275 276 279 281
296 303 303 308 311 313 318 323 326 330 334 336 338 347 353 352 347 350 334 331 328 325 328 335 352 0 21 49 48 54 127 144 163 219 258 246 273 278 277 264 265 269 274 278 279 284 270
291 296 297 303 304 306 311 314 316 321 325 328 330 332 332 341 342 337 343 329 310 308 306 299 290 288 286 294 295 302 294 284 269 265 269 274 280 285 283 280 277 271 276 280 286 288 279
292 290 296 299 303 302 304 308 310 309 312 318 323 327 326 327 331 333 321 317 310 297 296 292 287 283 276 272 272 267 268 277 279 276 277 278 273 276 280 283 280 282 277 275 281 282 279
286 288 297 303 308 310 307 311 308 303 300 307 312 316 319 318 314 319 322 312 300 287 282 282 288 286 284 274 269 266 267 262 261 268 274 273 273 271 270 271 279 286 283 279 278 280 280
280 278 284 290 291 305 305 311 310 302 300 304 305 305 308 308 307 305 305 306 306 291 276 263 257 272 278 280 279 287 280 271 272 271 269 267 273 273 271 272 272 276 276 276 277 275 275
276 278 280 283 285 289 296 290 303 298 291 292 300 299 305 301 300 299 299 297 298 293 276 269 265 260 260 266 265 271 277 279 280 282 282 280 275 273 274 271 272 277 272 273 272 274 275
275 275 276 275 277 285 275 286 276 284 286 283 283 289 293 290 288 293 291 291 289 280 280 282 268 261 259 259 262 265 268 271 276 277 279 280 286 287 285 281 281 279 278 280 278 276 276
271 271 273 277 275 274 271 274 274 269 270 271 273 276 276 282 280 283 283 283 283 283 280 274 272 270 268 266 270 266 265 271 274 268 275 279 284 292 294 291 294 284 278 281 284 285 291
268 271 273 272 272 273 274 272 271 267 263 264 268 268 269 270 274 275 278 272 270 273 275 274 270 267 263 261 262 265 266 265 266 272 277 278 285 291 290 294 294 291 288 289 292 297 299
268 268 269 269 269 269 271 274 272 270 263 261 262 266 268 268 271 271 271 271 269 266 264 265 264 265 263 262 261 262 260 262 267 267 269 270 274 276 281 285 287 289 292 291 293 293 296